This is the latest recevied weather packets stored in our database for station/object DG1ABU-11. If no packets are shown the sender has not sent any weather packets the latest 10 day(s).
| Time | Temp. | Humidity | Pressure | Rain* | Wind** | Luminosity | Snow |
|---|---|---|---|---|---|---|---|
| 1777871848 | 15.56° C | 46% | 1013.2 hPa | - | - | - | - |
| 1777870948 | 15.56° C | 45% | 1013.1 hPa | - | - | - | - |
| 1777870048 | 15.56° C | 47% | 1013 hPa | - | - | - | - |
| 1777869148 | 15.56° C | 45% | 1012.8 hPa | - | - | - | - |
| 1777868248 | 15.56° C | 44% | 1012.9 hPa | - | - | - | - |
| 1777867348 | 15.56° C | 44% | 1012.8 hPa | - | - | - | - |
| 1777866448 | 16.11° C | 44% | 1012.8 hPa | - | - | - | - |
| 1777865548 | 16.11° C | 45% | 1012.8 hPa | - | - | - | - |
| 1777864648 | 16.11° C | 43% | 1012.8 hPa | - | - | - | - |
| 1777863748 | 16.11° C | 43% | 1012.8 hPa | - | - | - | - |
| 1777862848 | 16.67° C | 42% | 1012.9 hPa | - | - | - | - |
| 1777861948 | 16.67° C | 41% | 1012.8 hPa | - | - | - | - |
| 1777861048 | 17.22° C | 42% | 1012.7 hPa | - | - | - | - |
| 1777860148 | 17.22° C | 41% | 1012.6 hPa | - | - | - | - |
| 1777859248 | 17.22° C | 41% | 1012.7 hPa | - | - | - | - |
| 1777858347 | 17.78° C | 41% | 1012.8 hPa | - | - | - | - |
| 1777857447 | 17.78° C | 41% | 1012.6 hPa | - | - | - | - |
| 1777856547 | 17.78° C | 42% | 1012.7 hPa | - | - | - | - |
| 1777855647 | 17.78° C | 42% | 1012.5 hPa | - | - | - | - |
| 1777854747 | 17.78° C | 42% | 1012.5 hPa | - | - | - | - |
| 1777853847 | 17.78° C | 42% | 1012.4 hPa | - | - | - | - |
| 1777852947 | 18.33° C | 39% | 1012.4 hPa | - | - | - | - |
| 1777852047 | 18.33° C | 38% | 1012.4 hPa | - | - | - | - |
| 1777851147 | 18.89° C | 38% | 1012.3 hPa | - | - | - | - |
| 1777850247 | 18.89° C | 37% | 1012.4 hPa | - | - | - | - |
* Rain since midnight (hover to see other rain measurements)
** Current wind speed in m/s (hover to see current wind gust speed)